Regional Weather Roundup
Issued by NWS

Home | Current Version | Previous Version | Graphics & Text | Print | Product List | Glossary On
Versions: 1 2 3 4 5 6 7 8 9 10 11 12 13 14 15 16 17 18 19 20 21 22 23 24 25 26 27 28 29 30 31 32 33 34 35 36 37 38 39 40 41 42 43 44 45 46 47 48 49 50
690
ASUS43 KLSX 101510
RWRMO

WEATHER SUMMARY FOR MISSOURI
NATIONAL WEATHER SERVICE SPRINGFIELD MO
900 AM CST WED FEB 10 2016

NOTE: "FAIR" INDICATES FEW OR NO CLOUDS BELOW 12,000 FEET WITH NO
       SIGNIFICANT WEATHER AND/OR OBSTRUCTIONS TO VISIBILITY.
       CURRENT SKY AND/OR WEATHER CONDITIONS ARE NOT AVAILABLE FOR
       CHILLICOTHE AND FARMINGTON.

MOZ001>031-035>038-043-044-053-054-101600-
...NORTHERN AND WESTERN MISSOURI...

CITY           SKY/WX    TMP DP  RH WIND       PRES   REMARKS
KANSAS CTY INT CLOUDY    29  15  56 S15       30.09F WCI  18
KANSAS C DTWN  CLOUDY    31  13  47 S13       30.12F WCI  21
LEE`S SUMMIT   CLOUDY    29  14  53 S12       30.12F WCI  19
ST JOSEPH      CLOUDY    28  15  58 S12       30.10F WCI  18
CHILLICOTHE      N/A     22  17  81 S5        30.15S WCI  16
KIRKSVILLE     LGT SNOW  17   8  67 SW3       30.13F

$$
MOZ066>068-077>081-088>096-101>105-101600-
...SOUTHWEST MISSOURI...

CITY           SKY/WX    TMP DP  RH WIND       PRES   REMARKS
SPRINGFIELD    SUNNY     26  10  50 SW9       30.17F WCI  17
JOPLIN         SUNNY     28  11  48 S12       30.19R WCI  18

$$
MOZ032>034-039>042-045>050-055>058-069>072-101600-
...CENTRAL MISSOURI...

CITY           SKY/WX    TMP DP  RH WIND       PRES   REMARKS
COLUMBIA       CLOUDY    20  13  74 SW5       30.16R WCI  13
JEFFERSON CITY CLOUDY    20  12  71 CALM      30.20S
ROLLA          CLOUDY    19  10  68 SW5       30.14R WCI  12
SEDALIA        LGT SNOW  23  15  71 SW6       30.17S WCI  16
WHITEMAN AFB   FLURRIES  26  15  64 SW8       30.14F WCI  17
WARRENSBURG    CLOUDY    27  18  69 S5        30.15F WCI  21
OSAGE BEACH    CLOUDY    21  10  63 CALM      30.18S

$$
MOZ051-052-059>065-101600-
...EAST CENTRAL MISSOURI...

CITY           SKY/WX    TMP DP  RH WIND       PRES   REMARKS
ST LOUIS INTL  PTSUNNY   20   7  57 W10       30.19R WCI   9
SPIRIT OF STL  CLOUDY    19   9  65 W6        30.19S WCI  11
ST CHARLES     MOSUNNY   18   7  62 W13       30.19S WCI   5

$$
MOZ072>076-082>087-097>100-106>115-101600-
...SOUTH CENTRAL AND SOUTHEAST MISSOURI...

CITY           SKY/WX    TMP DP  RH WIND       PRES   REMARKS
CAPE GIRARDEAU SUNNY     21   8  57 NW10      30.24R WCI  10
FARMINGTON     SUNNY     19   8  62 NW8       30.19R WCI   9
POPLAR BLUFF   SUNNY     24   8  50 W7        30.24S WCI  16
WEST PLAINS    PTSUNNY   23   8  52 W9        30.19R WCI  13

$$




USA.gov is the U.S. government's official web portal to all federal, state and local government web resources and services.